User: anonymous   Login
Location: Vancouver
(49.2500°N, 123.1330°W)
Time: 22:05:35
(UTC-07:00)
Language:

Vanguard 2 Rocket - Orbit

View from above orbital plane
View from above orbital plane
View from above satellite
View from above satellite

Ground track
Ground track

The orbit data is extracted from the following two-line orbital elements,

1 00012U 59001B   15210.84500980  .00000639  00000-0  39010-3 0  9995
2 00012 032.8980 113.1753 1667035 055.9718 318.8181 11.43766586318110
Epoch (UTC): 29 July 2015 20:16:48
Eccentricity: 0.1667035
inclination: 32.8980°
perigee height: 556 km
apogee height: 3330 km
right ascension of ascending node: 113.1753°
argument of perigee: 55.9718°
revolutions per day: 11.43766586
mean anomaly at epoch: 318.8181°
orbit number at epoch: 31811

The dashed part of the orbit path shows where the satellite is in the earth's shadow,  

DLR